1487134800.75,10030,11.81,74810.5,-0.85,-28.91,-28.79,0,*69
1487134802.03,10031,11.81,74810.3,-0.85,-28.75,-28.91,0,*64
1487134803.27,10032,11.81,74804.3,-0.85,-28.79,-29.07,0,*65
1487134804.51,10033,11.81,74804.5,-0.85,-28.79,-29.07,0,*64
1487134805.76,10034,11.81,74804.3,-0.89,-28.97,-29.01,0,*69
1487134807.01,10035,11.81,74808.3,-0.89,-28.85,-29.01,0,*6B
1487134808.28,10036,11.81,74804.5,-0.89,-29.01,-29.17,0,*62
1487134809.55,10037,11.81,74806.3,-0.89,-29.01,-29.17,0,*63
1487134810.79,10038,11.81,74806.3,-0.89,-28.97,-29.01,0,*65
1487134812.02,10039,11.81,74804.8,-0.91,-28.97,-29.17,0,*6A
1487134813.29,10040,11.81,74808.3,-0.89,-29.01,-29.13,0,*67
1487134814.52,10041,11.81,74804.5,-0.89,-28.97,-29.13,0,*68
1487134815.79,10042,11.81,74804.5,-0.89,-28.63,-28.79,0,*6D
1487134817.06,10043,11.81,74802.0,-0.89,-28.63,-28.79,0,*6C
1487134818.33,10044,11.81,74804.5,-0.89,-28.63,-28.79,0,*6B
1487134819.59,10045,11.81,74806.8,-0.91,-28.59,-28.63,0,*61
1487134820.81,10046,11.81,74806.5,-0.89,-28.69,-28.85,0,*60
1487134822.06,10047,11.81,74804.5,-0.89,-28.85,-29.01,0,*6E
1487134823.29,10048,11.81,74808.5,-0.89,-28.69,-28.85,0,*6E
1487134824.54,10049,11.81,74800.0,-0.91,-28.59,-28.79,0,*66
1487134825.79,10050,11.81,74800.0,-0.89,-28.63,-28.85,0,*6D
1487134827.01,10051,11.81,74804.8,-0.89,-28.69,-28.97,0,*65
1487134828.21,10052,11.81,74804.3,-0.91,-28.69,-28.85,0,*6C
1487134829.49,10053,11.81,74806.0,-0.89,-28.59,-28.63,0,*6F
1487134830.76,10054,11.81,74806.0,-0.89,-28.43,-28.59,0,*6A
1487134832.02,10055,11.81,74810.5,-0.89,-28.47,-28.79,0,*6D
1487134833.27,10056,11.81,74808.5,-0.89,-28.63,-28.69,0,*69
1487134834.52,10057,11.81,74804.0,-0.89,-28.31,-28.43,0,*67
1487134835.79,10058,11.81,74806.3,-0.89,-28.25,-28.43,0,*6D
1487134837.02,10059,11.81,74806.8,-0.85,-28.37,-28.53,0,*62
1487134838.28,10060,11.81,74812.3,-0.85,-28.43,-28.75,0,*6F
1487134839.54,10061,11.81,74806.5,-0.83,-28.37,-28.59,0,*65
1487134840.79,10062,11.81,74810.0,-0.83,-28.47,-28.69,0,*62
1487134842.06,10063,11.81,74806.3,-0.85,-28.75,-28.91,0,*63
1487134843.33,10064,11.81,74810.3,-0.85,-28.75,-28.91,0,*64
1487134844.6,10065,11.81,74814.5,-0.85,-28.59,-28.79,0,*6D
1487134845.88,10066,11.81,74814.5,-0.85,-28.59,-28.63,0,*65
1487134847.15,10067,11.81,74812.3,-0.85,-28.63,-28.75,0,*6A
1487134848.42,10068,11.81,74816.8,-0.85,-28.79,-28.91,0,*64
1487134849.66,10069,11.81,74810.5,-0.85,-28.79,-28.97,0,*63
1487134850.93,10070,11.81,74812.3,-0.85,-28.63,-28.79,0,*60
1487134852.2,10071,11.81,74810.8,-0.85,-28.79,-28.79,0,*6A
1487134853.47,10072,11.81,74814.3,-0.85,-28.63,-28.91,0,*64
1487134854.74,10073,11.81,74808.0,-0.85,-28.59,-28.75,0,*66
1487134855.99,10074,11.81,74806.8,-0.85,-28.53,-28.75,0,*6B
1487134857.25,10075,11.81,74810.5,-0.85,-28.63,-28.75,0,*69
1487134858.53,10076,11.81,74814.8,-0.85,-28.63,-28.91,0,*60
1487134859.79,10077,11.81,74810.3,-0.85,-28.59,-28.79,0,*6E
1487134861.06,10078,11.81,74812.8,-0.85,-28.59,-28.75,0,*6D
1487134862.34,10079,11.81,74810.3,-0.85,-28.43,-28.63,0,*60
1487134863.6,10080,11.81,74806.8,-0.85,-28.59,-28.75,0,*6A
1487134864.86,10081,11.81,74808.5,-0.83,-28.59,-28.69,0,*60
1487134866.13,10082,11.81,74810.3,-0.85,-28.43,-28.63,0,*64
1487134867.41,10083,11.81,74810.3,-0.85,-28.63,-28.91,0,*6A
1487134868.68,10084,11.81,74806.0,-0.85,-28.59,-28.79,0,*62
1487134869.92,10085,11.81,74808.0,-0.85,-28.53,-28.75,0,*65
1487134871.19,10086,11.81,74810.8,-0.85,-28.59,-28.79,0,*60
1487134872.46,10087,11.81,74812.8,-0.85,-28.75,-28.91,0,*69
1487134873.71,10088,11.81,74804.3,-0.85,-28.37,-28.59,0,*64
1487134874.99,10089,11.81,74810.8,-0.85,-28.43,-28.63,0,*6F
1487134876.26,10090,11.81,74808.0,-0.85,-28.63,-28.91,0,*68
1487134877.51,10091,11.81,74804.8,-0.85,-28.91,-29.07,0,*6A
1487134878.72,10092,11.81,74808.8,-0.85,-28.97,-29.07,0,*6F
1487134880.0,10093,11.81,74810.3,-0.85,-28.59,-28.63,0,*6F
1487134881.24,10094,11.81,74806.0,-0.85,-28.75,-28.97,0,*6D
1487134882.51,10095,11.81,74804.3,-0.85,-28.79,-28.91,0,*66
1487134883.72,10096,11.81,74806.3,-0.91,-28.85,-28.97,0,*65
1487134884.95,10097,11.81,74810.8,-0.89,-28.97,-29.13,0,*63
1487134886.21,10098,11.81,74802.0,-0.89,-28.63,-28.85,0,*69
1487134887.42,10099,11.81,74806.0,-0.91,-28.85,-28.85,0,*69
1487134888.64,10100,11.81,74810.0,-0.89,-28.69,-28.85,0,*63
1487134889.89,10101,11.81,74814.3,-0.89,-28.85,-29.01,0,*6D
1487134891.09,10102,11.81,74810.8,-0.91,-28.85,-28.97,0,*69
1487134892.37,10103,11.81,74808.5,-0.89,-28.43,-28.59,0,*69
1487134893.61,10104,11.81,74808.8,-0.89,-28.59,-28.69,0,*66
1487134894.86,10105,11.81,74810.0,-0.89,-28.59,-28.69,0,*67
1487134896.09,10106,11.81,74812.8,-0.89,-28.85,-28.97,0,*64
1487134897.34,10107,11.81,74812.3,-0.89,-28.79,-28.85,0,*65
1487134898.58,10108,11.81,74812.5,-0.89,-28.63,-28.69,0,*63
1487134899.84,10109,11.81,74808.5,-0.91,-28.43,-28.63,0,*63
1487134901.06,10110,11.81,74816.8,-0.89,-28.97,-28.97,0,*60
1487134902.3,10111,11.81,74816.5,-0.89,-28.79,-28.97,0,*61
1487134903.53,10112,11.81,74814.5,-0.91,-28.63,-28.69,0,*61
1487134904.78,10113,11.81,74814.8,-0.89,-28.79,-28.97,0,*63
1487134905.99,10114,11.81,74808.0,-0.91,-28.85,-28.85,0,*6D
1487134907.24,10115,11.81,74810.3,-0.85,-28.53,-28.63,0,*6A
1487134908.51,10116,11.81,74810.3,-0.89,-28.59,-28.79,0,*64
1487134909.73,10117,11.81,74812.5,-0.91,-28.97,-29.13,0,*63
1487134910.97,10118,11.81,74810.0,-0.89,-28.97,-29.13,0,*65
1487134912.19,10119,11.81,74812.8,-0.89,-28.97,-28.97,0,*69
1487134913.43,10120,11.81,74808.3,-0.91,-29.01,-29.13,0,*69
1487134914.7,10121,11.81,74812.5,-0.89,-29.13,-29.29,0,*6B
1487134915.9,10122,11.81,74812.3,-0.91,-28.69,-28.85,0,*6A
1487134917.13,10123,11.81,74812.8,-0.91,-28.63,-28.69,0,*63
1487134918.4,10124,11.81,74810.3,-0.89,-28.43,-28.59,0,*6C
1487134919.65,10125,11.81,74810.5,-0.91,-28.59,-28.79,0,*6D
1487134920.87,10126,11.81,74810.3,-0.89,-28.85,-28.97,0,*66
1487134922.12,10127,11.81,74810.3,-0.89,-28.79,-28.85,0,*67
1487134923.33,10128,11.81,74808.3,-0.91,-28.69,-28.85,0,*60
1487134924.56,10129,11.81,74806.8,-0.91,-28.85,-29.01,0,*6E
1487134925.81,10130,11.81,74808.0,-0.91,-29.01,-29.17,0,*6C
1487134927.05,10131,11.81,74810.5,-0.89,-28.97,-29.13,0,*6E
1487134928.3,10132,11.81,74810.8,-0.89,-28.79,-28.85,0,*63
1487134929.55,10133,11.81,74810.3,-0.89,-28.79,-28.85,0,*62
1487134930.77,10134,11.81,74810.8,-0.91,-28.97,-29.13,0,*62
1487134932.0,10135,11.81,74808.3,-0.91,-28.97,-29.01,0,*60
1487134933.22,10136,11.81,74810.5,-0.91,-28.97,-29.01,0,*63
1487134934.49,10137,11.81,74812.0,-0.89,-29.01,-29.13,0,*66
1487134935.71,10138,11.81,74814.3,-0.91,-28.97,-29.13,0,*6E
1487134936.96,10139,11.81,74812.3,-0.91,-29.01,-29.17,0,*65
1487134938.19,10140,11.81,74816.5,-0.91,-29.01,-28.97,0,*62
1487134939.41,10141,11.81,74818.5,-0.91,-28.79,-28.97,0,*6D
1487134940.66,10142,11.81,74814.3,-0.89,-28.97,-29.01,0,*69
1487134941.9,10143,11.81,74814.8,-0.91,-28.63,-28.79,0,*64
1487134943.13,10144,11.81,74814.5,-0.91,-28.69,-28.79,0,*69
1487134944.37,10145,11.81,74812.8,-0.93,-28.69,-28.75,0,*66
1487134945.63,10146,11.81,74812.0,-0.93,-28.63,-28.85,0,*60
1487134946.88,10147,11.81,74812.5,-0.93,-28.63,-28.85,0,*61
1487134948.13,10148,11.81,74812.8,-0.93,-29.01,-29.07,0,*60
1487134949.38,10149,11.81,74814.0,-0.95,-28.91,-29.01,0,*69
1487134950.63,10150,11.81,74812.0,-0.93,-28.69,-28.75,0,*62
1487134951.86,10151,11.81,74816.3,-0.93,-28.53,-28.69,0,*67
1487134953.06,10152,11.81,74812.0,-0.95,-28.69,-28.85,0,*69
1487134954.29,10153,11.81,74814.3,-0.93,-28.69,-28.85,0,*6E
1487134955.54,10154,11.81,74814.0,-0.93,-28.63,-28.85,0,*63
1487134956.82,10155,11.81,74814.8,-0.93,-28.63,-28.75,0,*6D
1487134958.07,10156,11.81,74812.8,-0.93,-28.85,-29.01,0,*64
1487134959.35,10157,11.81,74812.8,-0.93,-28.91,-29.01,0,*60
1487134960.6,10158,11.81,74814.0,-0.93,-28.85,-28.91,0,*62
1487134961.88,10159,11.81,74814.0,-0.93,-28.75,-28.91,0,*6C
1487134963.13,10160,11.81,74812.5,-0.93,-28.91,-29.07,0,*62
1487134964.35,10161,11.81,74816.8,-0.95,-29.07,-29.17,0,*6A
1487134965.63,10162,11.81,74814.8,-0.93,-28.91,-29.01,0,*66
1487134966.88,10163,11.81,74814.5,-0.93,-29.01,-29.07,0,*69
1487134968.13,10164,11.81,74816.5,-0.95,-28.75,-29.01,0,*6C
1487134969.4,10165,11.81,74814.0,-0.93,-29.01,-29.17,0,*6E
1487134970.65,10166,11.81,74810.3,-0.95,-29.01,-29.17,0,*6B
1487134971.93,10167,11.81,74812.0,-0.93,-28.91,-29.01,0,*63
1487134973.16,10168,11.81,74810.8,-0.93,-28.85,-29.07,0,*6F
1487134974.43,10169,11.81,74812.5,-0.93,-28.91,-29.01,0,*6D
1487134975.69,10170,11.81,74814.8,-0.95,-29.01,-29.17,0,*6C
1487134976.94,10171,11.81,74812.5,-0.95,-29.01,-29.17,0,*6D
1487134978.17,10172,11.81,74810.3,-0.95,-28.63,-28.85,0,*61
1487134979.42,10173,11.81,74810.0,-0.93,-28.75,-28.85,0,*61
1487134980.65,10174,11.81,74814.0,-0.95,-28.91,-29.07,0,*61
1487134981.9,10175,11.81,74816.0,-0.95,-28.75,-28.91,0,*64
1487134983.12,10176,11.81,74818.0,-0.95,-28.91,-29.07,0,*63
1487134984.38,10177,11.81,74814.3,-0.95,-28.91,-28.91,0,*6C
1487134985.59,10178,11.81,74812.3,-0.95,-28.37,-28.53,0,*61
1487134986.82,10179,11.81,74818.0,-0.95,-28.37,-28.47,0,*65
1487134988.07,10180,11.81,74816.5,-0.95,-28.47,-28.63,0,*62
1487134989.32,10181,11.81,74818.8,-0.95,-28.63,-28.75,0,*62
1487134990.57,10182,11.81,74816.3,-0.93,-28.63,-28.85,0,*68
1487134991.83,10183,11.81,74816.5,-0.93,-28.63,-28.85,0,*69
1487134993.06,10184,11.81,74816.0,-0.95,-28.85,-28.91,0,*65
1487134994.28,10185,11.81,74814.3,-0.95,-28.69,-28.75,0,*6C
1487134995.51,10186,11.81,74812.3,-0.95,-28.75,-28.85,0,*6D
1487134996.71,10187,11.81,74812.5,-0.95,-28.53,-28.69,0,*6A
1487134997.93,10188,11.81,74816.8,-0.95,-28.69,-28.75,0,*61
1487134999.19,10189,11.81,74814.5,-0.95,-28.91,-29.01,0,*65
1487135000.42,10190,11.81,74814.8,-0.93,-28.37,-28.69,0,*68
1487135001.65,10191,11.81,74814.5,-0.95,-28.53,-28.63,0,*67
1487135002.88,10192,11.81,74818.8,-0.95,-28.75,-28.85,0,*68
1487135004.16,10193,11.81,74818.8,-0.93,-28.91,-28.91,0,*60
1487135005.4,10194,11.81,74814.5,-0.95,-28.53,-28.63,0,*62
1487135006.62,10195,11.81,74814.3,-0.95,-28.53,-28.75,0,*64
1487135007.87,10196,11.81,74816.8,-0.95,-28.75,-28.91,0,*69
1487135009.13,10197,11.81,74816.8,-0.95,-28.91,-28.91,0,*62
1487135010.36,10198,11.81,74812.0,-0.95,-28.53,-28.75,0,*69
1487135011.59,10199,11.81,74816.5,-0.93,-28.53,-28.85,0,*61
1487135012.84,10200,11.81,74822.0,-0.97,-28.91,-29.07,0,*63
1487135014.07,10201,11.81,74822.5,-0.95,-28.53,-28.75,0,*6A
1487135015.3,10202,11.81,74820.5,-0.95,-28.37,-28.63,0,*6C
1487135016.5,10203,11.81,74820.8,-0.95,-28.37,-28.69,0,*67
1487135017.75,10204,11.81,74820.0,-0.93,-28.37,-28.47,0,*6A
1487135019.0,10205,11.81,74816.3,-0.93,-28.47,-28.69,0,*60
1487135020.23,10206,11.81,74818.5,-0.95,-28.75,-28.85,0,*66
1487135021.48,10207,11.81,74820.3,-0.93,-28.63,-28.85,0,*66
1487135022.69,10208,11.81,74818.8,-0.95,-28.69,-28.85,0,*65
1487135023.92,10209,11.81,74816.3,-0.95,-28.63,-28.85,0,*6E
1487135025.13,10210,11.81,74818.3,-0.95,-28.53,-28.69,0,*67
1487135026.33,10211,11.81,74814.8,-0.95,-28.15,-28.31,0,*69
1487135027.54,10212,11.81,74816.0,-0.95,-28.53,-28.69,0,*65
1487135028.74,10213,11.81,74818.5,-0.95,-28.69,-28.85,0,*6F
1487135029.97,10214,11.81,74812.0,-0.95,-28.53,-28.75,0,*6E
1487135031.19,10215,11.81,74814.3,-0.95,-28.75,-28.85,0,*64
1487135032.45,10216,11.81,74814.8,-0.93,-28.85,-28.91,0,*6B
1487135033.66,10217,11.81,74814.0,-0.95,-28.69,-28.85,0,*6B
1487135034.89,10218,11.81,74818.5,-0.95,-28.37,-28.63,0,*67
1487135036.14,10219,11.81,74822.0,-0.93,-28.63,-28.85,0,*69
1487135037.37,10220,11.81,74814.3,-0.95,-28.75,-28.85,0,*62
1487135038.58,10221,11.81,74816.5,-0.95,-28.37,-28.53,0,*6E
1487135039.8,10222,11.81,74814.5,-0.93,-28.31,-28.37,0,*6F
1487135041.03,10223,11.81,74816.8,-0.93,-28.37,-28.69,0,*63
1487135042.25,10224,11.81,74818.3,-0.95,-28.69,-28.75,0,*64
1487135043.5,10225,11.81,74812.5,-0.93,-28.75,-28.85,0,*61
1487135044.71,10226,11.81,74816.0,-0.95,-28.69,-28.85,0,*69
1487135045.92,10227,11.81,74816.3,-0.95,-28.69,-28.85,0,*68
1487135047.17,10228,11.81,74816.0,-0.95,-28.75,-29.01,0,*67
1487135048.39,10229,11.81,74818.8,-0.95,-28.69,-29.01,0,*6B
1487135049.62,10230,11.81,74818.8,-0.95,-28.53,-28.75,0,*68
1487135050.84,10231,11.81,74818.8,-0.93,-28.85,-29.07,0,*60
1487135052.04,10232,11.81,74818.8,-0.95,-28.85,-29.07,0,*65
1487135053.29,10233,11.81,74816.5,-0.95,-28.75,-28.91,0,*65
1487135054.52,10234,11.81,74818.8,-0.95,-28.53,-28.75,0,*6C
1487135055.76,10235,11.81,74816.5,-0.97,-28.79,-28.97,0,*6B
1487135057.04,10236,11.81,74816.8,-0.93,-28.75,-28.91,0,*66
1487135058.29,10237,11.81,74818.3,-0.93,-28.69,-28.91,0,*6A
1487135059.5,10238,11.81,74818.0,-0.95,-28.53,-28.85,0,*6F
1487135060.72,10239,11.81,74818.8,-0.95,-28.53,-28.75,0,*61
1487135061.96,10240,11.81,74818.8,-0.95,-28.85,-28.91,0,*6E
1487135063.17,10241,11.81,74816.3,-0.99,-28.97,-29.13,0,*6B
1487135064.42,10242,11.81,74818.3,-0.97,-28.79,-28.97,0,*6B
1487135065.68,10243,11.81,74816.0,-0.97,-28.69,-28.91,0,*6D
1487135066.92,10244,11.81,74818.5,-0.95,-28.75,-29.01,0,*6D
1487135068.17,10245,11.81,74816.5,-0.97,-28.75,-28.97,0,*60
1487135069.45,10246,11.81,74812.5,-0.97,-28.75,-28.91,0,*65
1487135070.7,10247,11.81,74814.0,-0.97,-28.91,-29.07,0,*60
1487135071.95,10248,11.81,74814.5,-0.97,-28.91,-29.07,0,*6F
1487135073.19,10249,11.81,74812.5,-0.97,-28.59,-28.97,0,*62
1487135074.44,10250,11.81,74816.0,-0.99,-28.59,-28.79,0,*64
1487135075.69,10251,11.81,74812.3,-0.99,-28.47,-28.47,0,*67
1487135076.92,10252,11.81,74814.5,-0.99,-28.69,-28.91,0,*63
1487135078.16,10253,11.81,74816.3,-0.97,-28.97,-29.13,0,*66
1487135079.4,10254,11.81,74818.3,-0.97,-28.69,-28.79,0,*6D
1487135080.68,10255,11.81,74814.0,-0.97,-28.79,-28.91,0,*6B
1487135081.9,10256,11.81,74814.3,-0.99,-28.97,-29.13,0,*6D
1487135083.13,10257,11.81,74812.0,-0.97,-28.69,-28.85,0,*6D
1487135084.38,10258,11.81,74812.8,-0.97,-28.79,-28.97,0,*60
1487135085.65,10259,11.81,74810.5,-0.97,-28.75,-28.79,0,*6D
1487135086.88,10260,11.81,74814.0,-0.99,-28.63,-28.85,0,*6D
1487135088.13,10261,11.81,74816.3,-0.97,-28.69,-28.91,0,*6D
1487135089.38,10262,11.81,74816.3,-0.97,-28.69,-28.91,0,*6E
1487135090.66,10263,11.81,74818.0,-0.97,-28.59,-28.91,0,*6C
1487135091.89,10264,11.81,74812.3,-0.95,-28.69,-28.91,0,*6A
1487135093.14,10265,11.81,74810.3,-0.95,-28.47,-28.63,0,*6A
1487135094.39,10266,11.81,74810.0,-0.99,-28.43,-28.75,0,*66
1487135095.63,10267,11.81,74812.3,-0.99,-28.75,-28.79,0,*6E
1487135096.91,10268,11.81,74812.3,-0.97,-28.79,-28.91,0,*65
1487135098.16,10269,11.81,74810.8,-0.97,-28.75,-28.97,0,*6E
1487135099.38,10270,11.81,74816.5,-0.99,-28.75,-28.85,0,*6B
1487135100.63,10271,11.81,74810.8,-0.97,-28.43,-28.53,0,*6A
1487135101.89,10272,11.81,74810.5,-0.97,-28.53,-28.59,0,*62
1487135103.16,10273,11.81,74808.0,-0.97,-28.59,-28.79,0,*6B
1487135104.41,10274,11.81,74812.0,-0.97,-28.69,-28.91,0,*69
1487135105.66,10275,11.81,74814.3,-0.97,-28.79,-28.97,0,*6F
1487135106.94,10276,11.81,74814.5,-0.97,-28.75,-28.91,0,*66
1487135108.16,10277,11.81,74814.8,-0.99,-28.75,-28.97,0,*6F
1487135109.43,10278,11.81,74814.0,-0.97,-28.59,-28.79,0,*60
1487135110.71,10279,11.81,74814.3,-0.97,-28.43,-28.59,0,*68
1487135111.93,10280,11.81,74812.5,-0.95,-28.47,-28.53,0,*62
1487135113.16,10281,11.81,74816.0,-0.93,-28.37,-28.53,0,*62
1487135114.36,10282,11.81,74814.0,-0.95,-28.37,-28.53,0,*67
1487135115.62,10283,11.81,74810.0,-0.97,-28.69,-28.91,0,*61
1487135116.84,10284,11.81,74814.8,-0.97,-28.53,-28.69,0,*68
1487135118.1,10285,11.81,74814.8,-0.95,-28.47,-28.63,0,*64
1487135119.35,10286,11.81,74816.0,-0.95,-28.47,-28.63,0,*67
1487135120.57,10287,11.81,74816.5,-0.95,-28.53,-28.75,0,*64
1487135121.81,10288,11.81,74816.3,-0.95,-28.53,-28.63,0,*6C
1487135123.01,10289,11.81,74814.0,-0.95,-28.31,-28.37,0,*68
1487135124.23,10290,11.81,74810.5,-0.95,-28.53,-28.75,0,*62
1487135125.49,10291,11.81,74816.5,-0.95,-28.91,-29.01,0,*6F
1487135126.74,10292,11.81,74812.8,-0.93,-28.69,-28.91,0,*65
1487135127.99,10293,11.81,74814.0,-0.95,-28.47,-28.63,0,*63
1487135129.2,10294,11.81,74814.0,-0.95,-28.69,-28.85,0,*60
1487135130.45,10295,11.81,74814.8,-0.93,-28.63,-28.69,0,*6F
1487135131.7,10296,11.81,74816.0,-0.95,-28.75,-29.01,0,*62
1487135132.92,10297,11.81,74814.5,-0.95,-29.01,-29.07,0,*67
1487135134.15,10298,11.81,74814.0,-0.95,-28.85,-29.01,0,*63
1487135135.4,10299,11.81,74814.3,-0.95,-28.75,-28.91,0,*65
1487135136.66,10300,11.81,74808.3,-0.95,-28.91,-29.01,0,*66
1487135137.89,10301,11.81,74814.0,-0.95,-28.91,-29.07,0,*61
1487135139.14,10302,11.81,74810.8,-0.93,-28.85,-29.01,0,*67
1487135140.39,10303,11.81,74814.3,-0.95,-28.75,-28.91,0,*67
1487135141.64,10304,11.81,74816.5,-0.95,-28.75,-28.91,0,*60
1487135142.87,10305,11.81,74818.5,-0.95,-28.91,-29.07,0,*65
1487135144.1,10306,11.81,74816.5,-0.95,-28.21,-28.15,0,*6F
1487135145.31,10307,11.81,74816.5,-0.95,-28.31,-28.53,0,*6D
1487135146.52,10308,11.81,74818.0,-0.95,-28.85,-28.85,0,*66
1487135147.74,10309,11.81,74818.8,-0.95,-28.75,-28.85,0,*68
1487135149.02,10310,11.81,74816.5,-0.97,-28.79,-28.91,0,*6B
1487135150.27,10311,11.81,74822.5,-0.97,-28.91,-29.07,0,*62
1487135151.5,10312,11.81,74822.3,-0.95,-28.85,-28.91,0,*68
1487135152.76,10313,11.81,74814.8,-0.97,-28.59,-28.69,0,*6D
1487135154.03,10314,11.81,74816.0,-0.97,-28.79,-28.91,0,*6F
1487135155.28,10315,11.81,74816.8,-0.97,-28.69,-28.79,0,*69
1487135156.53,10316,11.81,74818.3,-0.99,-28.59,-28.75,0,*6B
1487135157.76,10317,11.81,74816.3,-0.95,-28.63,-28.85,0,*60
1487135158.98,10318,11.81,74814.0,-0.95,-28.69,-28.75,0,*6A
1487135160.21,10319,11.81,74814.0,-0.95,-28.53,-28.75,0,*62
1487135161.45,10320,11.81,74814.3,-0.97,-28.43,-28.69,0,*66
1487135162.66,10321,11.81,74816.3,-0.95,-28.69,-28.85,0,*6F
1487135163.86,10322,11.81,74814.3,-0.95,-28.37,-28.53,0,*6C
1487135165.11,10323,11.81,74814.5,-0.95,-28.63,-28.75,0,*68
1487135166.36,10324,11.81,74818.5,-0.95,-28.63,-28.75,0,*6F
1487135167.61,10325,11.81,74818.5,-0.95,-28.63,-28.75,0,*6E
1487135168.86,10326,11.81,74814.8,-0.95,-28.63,-28.75,0,*6D
1487135170.11,10327,11.81,74818.8,-0.95,-28.75,-29.01,0,*69
1487135171.34,10328,11.81,74818.5,-0.95,-28.85,-28.91,0,*61
1487135172.59,10329,11.81,74818.8,-0.95,-28.75,-28.91,0,*6F
1487135173.87,10330,11.81,74816.0,-0.97,-28.75,-28.91,0,*65
1487135175.09,10331,11.81,74814.0,-0.95,-28.53,-28.75,0,*68
1487135176.31,10332,11.81,74820.0,-0.95,-28.53,-28.75,0,*6B
1487135177.52,10333,11.81,74816.8,-0.95,-28.85,-28.85,0,*6E
1487135178.75,10334,11.81,74818.5,-0.95,-28.53,-28.75,0,*6D
1487135180.0,10335,11.81,74818.3,-0.95,-28.75,-28.91,0,*62
1487135181.23,10336,11.81,74818.0,-0.95,-28.63,-28.85,0,*63
1487135182.46,10337,11.81,74816.3,-0.95,-28.63,-28.85,0,*62
1487135183.69,10338,11.81,74818.8,-0.95,-28.85,-29.01,0,*68
1487135184.95,10339,11.81,74822.5,-0.97,-28.91,-28.97,0,*60
1487135186.19,10340,11.81,74818.8,-0.97,-28.91,-29.07,0,*66
1487135187.44,10341,11.81,74816.5,-0.97,-28.75,-28.97,0,*65
1487135188.69,10342,11.81,74814.0,-0.97,-28.79,-28.97,0,*6A
1487135189.92,10343,11.81,74816.3,-0.99,-28.75,-28.85,0,*6A
1487135191.17,10344,11.81,74814.8,-0.97,-28.53,-28.75,0,*68
1487135192.4,10345,11.81,74812.3,-0.95,-28.75,-28.85,0,*60
1487135193.63,10346,11.81,74808.3,-0.95,-28.85,-28.91,0,*69
1487135194.85,10347,11.81,74816.0,-0.95,-28.91,-29.07,0,*63
1487135196.1,10348,11.81,74814.0,-0.97,-28.97,-29.13,0,*6D
1487135197.37,10349,11.81,74816.3,-0.97,-28.75,-28.79,0,*6D
1487135198.64,10350,11.75,74808.8,-0.97,-28.79,-28.91,0,*6F
1487135199.9,10351,11.81,74812.3,-0.97,-28.91,-28.97,0,*6E
1487135201.15,10352,11.81,74814.3,-0.97,-28.91,-28.97,0,*6D
1487135202.38,10353,11.81,74812.8,-0.97,-28.53,-28.69,0,*63
1487135203.65,10354,11.81,74816.3,-0.97,-28.75,-28.91,0,*67
1487135204.9,10355,11.81,74816.0,-0.97,-28.69,-28.79,0,*6D
1487135206.18,10356,11.81,74814.8,-0.97,-28.25,-28.43,0,*6F
1487135207.43,10357,11.81,74816.8,-0.97,-28.53,-28.79,0,*66
1487135208.7,10358,11.81,74816.3,-0.97,-28.79,-28.91,0,*67
1487135209.95,10359,11.81,74816.0,-0.97,-28.79,-28.97,0,*60
1487135211.2,10360,11.81,74814.0,-0.97,-28.79,-28.97,0,*6A
1487135212.42,10361,11.81,74814.3,-0.99,-28.75,-28.97,0,*69
1487135213.67,10362,11.81,74818.3,-0.99,-28.47,-28.75,0,*67
1487135214.94,10363,11.81,74818.3,-0.97,-28.59,-28.91,0,*6D
1487135216.19,10364,11.81,74814.3,-0.97,-28.53,-28.79,0,*66
1487135217.45,10365,11.81,74812.5,-0.97,-28.25,-28.53,0,*6E
1487135218.68,10366,11.81,74816.3,-0.97,-28.37,-28.69,0,*67
1487135219.95,10367,11.81,74816.8,-0.97,-28.59,-28.91,0,*69
1487135221.22,10368,11.81,74810.5,-0.97,-28.43,-28.79,0,*6B
1487135222.46,10369,11.81,74820.8,-0.97,-28.75,-29.07,0,*67
1487135223.74,10370,11.81,74816.3,-0.97,-28.59,-28.79,0,*69
1487135224.99,10371,11.81,74820.0,-0.97,-28.53,-28.79,0,*62
1487135226.19,10372,11.81,74810.3,-0.95,-28.69,-28.85,0,*69
1487135227.42,10373,11.81,74816.5,-0.95,-28.53,-28.91,0,*64
1487135228.65,10374,11.81,74814.5,-0.97,-28.69,-28.97,0,*6E
1487135229.92,10375,11.81,74812.8,-0.97,-28.59,-28.91,0,*6A
1487135231.15,10376,11.81,74812.8,-0.99,-28.59,-28.97,0,*61
1487135232.4,10377,11.81,74810.5,-0.97,-28.69,-28.91,0,*6B
1487135233.65,10378,11.81,74814.3,-0.97,-28.75,-28.97,0,*6F
1487135234.89,10379,11.81,74812.5,-0.97,-28.59,-28.97,0,*60
1487135236.15,10380,11.81,74814.3,-0.97,-28.53,-28.91,0,*6A
1487135237.4,10381,11.81,74810.3,-0.97,-28.79,-29.07,0,*6D
1487135238.62,10382,11.81,74812.3,-0.99,-28.97,-29.13,0,*65
1487135239.89,10383,11.81,74812.0,-0.97,-28.59,-28.91,0,*63
1487135241.17,10384,11.81,74814.0,-0.97,-28.75,-28.91,0,*6A
1487135242.42,10385,11.81,74812.8,-0.97,-28.79,-28.97,0,*61
1487135243.66,10386,11.81,74812.5,-0.97,-28.75,-28.97,0,*6E
1487135244.9,10387,11.81,74816.5,-0.97,-28.53,-28.69,0,*6A
1487135246.17,10388,11.81,74812.5,-0.97,-28.43,-28.59,0,*67
1487135247.42,10389,11.81,74812.5,-0.97,-28.53,-28.75,0,*69
1487135248.66,10390,11.81,74812.5,-0.97,-28.79,-28.97,0,*65
1487135249.94,10391,11.81,74812.3,-0.97,-28.75,-28.91,0,*6E
1487135251.19,10392,11.81,74814.5,-0.97,-28.53,-28.79,0,*6F
1487135252.44,10393,11.81,74812.8,-0.97,-28.43,-28.69,0,*6E
1487135253.71,10394,11.81,74810.3,-0.97,-28.59,-28.79,0,*63
1487135254.96,10395,11.81,74814.3,-0.97,-28.43,-28.69,0,*68
1487135256.18,10396,11.81,74814.5,-0.99,-28.63,-28.97,0,*66
1487135257.4,10397,11.81,74814.8,-0.97,-28.69,-28.97,0,*63
1487135258.65,10398,11.81,74812.5,-0.97,-28.75,-29.07,0,*69
1487135259.89,10399,11.81,74808.5,-0.97,-28.97,-29.13,0,*61
1487135261.14,10400,11.81,74812.8,-0.99,-29.13,-29.17,0,*61
1487135262.37,10401,11.81,74810.8,-0.99,-28.79,-28.85,0,*67
1487135263.62,10402,11.81,74810.8,-0.97,-28.75,-28.97,0,*65
1487135264.87,10403,11.81,74812.0,-0.99,-29.01,-29.29,0,*6C
1487135266.11,10404,11.81,74808.8,-0.99,-29.01,-29.29,0,*6B
1487135267.34,10405,11.81,74804.0,-0.99,-28.63,-28.85,0,*68
1487135268.58,10406,11.81,74814.5,-0.99,-28.79,-28.85,0,*60
1487135269.82,10407,11.81,74810.8,-0.99,-28.47,-28.75,0,*63
1487135271.09,10408,11.81,74814.3,-0.97,-28.59,-28.75,0,*6D
1487135272.31,10409,11.81,74810.3,-0.99,-28.97,-29.13,0,*61
1487135273.54,10410,11.81,74812.5,-0.99,-28.85,-29.01,0,*69
1487135274.77,10411,11.75,74808.0,-0.99,-28.85,-29.01,0,*68
1487135276.01,10412,11.81,74810.3,-0.97,-28.97,-29.13,0,*65
1487135277.28,10413,11.81,74810.3,-0.97,-28.75,-28.79,0,*65
1487135278.51,10414,11.81,74808.8,-0.99,-28.85,-29.01,0,*6D
1487135279.76,10415,11.81,74808.3,-0.99,-28.75,-28.79,0,*6D
1487135281.03,10416,11.81,74810.8,-0.97,-28.75,-28.91,0,*66
1487135282.24,10417,11.81,74812.5,-0.99,-28.85,-28.97,0,*60
1487135283.51,10418,11.81,74814.5,-0.97,-28.75,-28.91,0,*68
1487135284.74,10419,11.81,74812.8,-0.99,-28.79,-28.97,0,*6D
1487135285.96,10420,11.81,74818.0,-0.99,-28.97,-29.17,0,*6E
1487135287.21,10421,11.81,74812.0,-0.99,-29.13,-29.29,0,*6F
1487135288.44,10422,11.81,74812.5,-0.99,-28.85,-29.01,0,*68
1487135289.68,10423,11.81,74820.5,-0.99,-29.01,-29.29,0,*6E
1487135290.91,10424,11.81,74822.0,-0.99,-28.97,-29.01,0,*6D
1487135292.16,10425,11.81,74818.8,-0.99,-28.63,-28.79,0,*69
1487135293.39,10426,11.81,74812.0,-0.99,-28.79,-28.85,0,*62
1487135294.63,10427,11.81,74814.0,-0.99,-29.17,-29.29,0,*6D
1487135295.91,10428,11.81,74812.8,-1.01,-29.17,-29.29,0,*52
1487135297.14,10429,11.81,74814.8,-0.99,-28.85,-29.13,0,*60